Theta_e
293 293 292 292 291 291 291 290 290 290 290 290 290 289 289 289 289 288 288 288 288 288 288 288 287 287 287 287 287 287 286 286 286 286 286 286 286 286 286 285 285 285 285 285 285 285 285 285 285 285 285 284 284 284 284 284 284 284 284 283 283 282 281 281 281 282 285 285 284 283 283 283 284 284 285 285 286 286 286 286 286 287 287 287 287
292 292 291 291 291 290 290 290 290 290 289 289 289 289 289 289 289 288 288 288 288 288 288 288 288 288 287 287 287 287 286 286 286 285 285 285 285 285 285 285 285 285 285 285 285 285 285 285 284 284 284 284 283 283 283 283 283 283 283 283 283 282 281 280 280 280 283 285 285 283 282 282 283 283 283 284 284 285 285 285 285 285 286 287 287
291 291 291 290 290 290 290 290 289 289 289 289 289 289 289 289 289 288 288 288 288 288 288 288 288 288 287 287 287 286 286 285 285 285 285 285 285 285 285 285 285 285 285 285 285 285 285 284 284 284 283 283 283 283 283 283 283 283 283 282 282 282 281 280 280 279 280 283 285 284 282 281 281 281 281 282 283 283 284 284 284 284 284 285 286
291 290 290 290 290 290 290 290 289 289 289 289 289 289 289 289 288 288 288 288 288 288 288 288 288 287 287 287 286 286 285 285 285 285 285 285 285 285 285 285 285 285 285 285 284 284 284 284 284 283 283 283 283 283 283 283 283 282 282 282 281 281 280 279 279 279 279 280 283 283 281 280 280 280 281 281 282 282 282 282 283 283 283 284 284
290 290 290 289 289 290 290 289 289 289 289 289 289 289 289 288 288 288 288 288 288 288 288 288 287 287 287 286 286 285 285 285 284 284 284 284 284 284 284 284 284 284 284 284 284 284 284 283 283 283 283 283 283 282 282 282 282 281 281 280 280 279 279 278 277 278 277 278 280 281 280 279 279 279 280 280 280 281 281 281 282 282 283 283 284
290 289 289 289 290 290 290 289 289 289 289 289 289 288 288 288 288 288 288 287 287 287 287 287 287 287 286 286 285 285 284 284 284 284 284 284 284 284 284 284 284 284 284 284 284 284 283 283 283 282 282 282 282 282 282 281 281 280 280 279 279 278 277 277 276 276 277 276 277 279 279 278 278 279 279 280 280 280 281 281 282 282 283 283 284
289 289 289 289 290 290 290 289 289 289 289 289 289 288 288 288 288 288 287 287 287 287 287 287 287 286 286 285 285 284 284 284 284 284 284 284 284 284 284 284 284 284 284 284 284 283 283 282 282 282 282 282 281 281 280 280 280 279 279 278 278 277 276 275 275 275 276 276 276 277 277 277 277 278 278 279 279 279 280 281 281 281 281 282 282
289 289 289 289 290 290 290 289 289 289 289 289 288 288 288 288 288 287 287 287 287 287 287 286 286 286 286 285 284 284 283 283 283 284 284 284 284 284 284 284 284 284 284 284 283 283 282 282 282 282 281 281 280 279 279 279 278 278 278 277 277 276 275 275 274 274 274 275 275 275 275 276 276 277 277 277 278 278 279 279 279 279 279 280 281
288 288 289 290 290 290 290 289 289 289 289 289 288 288 288 288 287 287 287 287 287 286 286 286 286 286 285 284 284 283 283 283 283 283 283 284 284 284 284 284 284 284 284 283 283 282 282 282 281 281 281 280 280 279 278 278 277 277 277 276 276 276 275 274 273 273 273 274 274 274 275 275 275 276 276 276 276 277 277 277 277 277 278 279 279
288 289 289 290 290 290 289 289 289 289 289 288 288 288 288 288 287 287 287 287 287 286 286 286 286 285 285 284 283 283 283 283 283 283 283 283 283 284 284 283 283 283 283 283 282 282 282 281 281 281 280 280 280 279 279 278 277 277 276 276 275 275 274 273 272 272 273 273 273 274 274 274 274 275 275 275 275 275 276 276 276 277 277 277 278
288 289 289 290 290 289 289 289 289 289 289 288 288 288 288 288 287 287 287 287 287 286 286 286 286 285 285 284 283 282 282 283 283 283 283 283 283 283 283 283 283 283 283 282 282 282 281 281 280 280 280 280 279 279 278 278 277 277 276 275 275 274 273 273 273 273 273 273 273 273 274 274 274 274 275 275 275 275 275 275 275 276 276 276 277
288 289 289 290 290 289 289 289 289 289 289 288 288 288 288 288 287 287 287 287 287 286 286 286 286 285 284 283 282 282 282 282 283 283 283 283 283 283 283 283 283 283 282 282 282 281 281 280 280 280 280 279 279 279 278 278 277 276 276 275 275 275 274 274 274 273 273 273 274 274 274 274 274 274 275 275 275 275 275 275 275 276 276 276 277
288 289 289 290 290 289 289 289 289 289 289 288 288 288 288 288 287 287 287 287 287 286 286 286 285 285 284 283 282 282 282 282 282 283 283 283 283 282 283 282 282 282 282 282 281 281 280 280 279 279 279 279 279 279 278 277 277 276 276 275 275 275 275 275 274 274 274 274 274 274 274 275 275 275 275 275 275 275 275 276 276 276 276 277 277
288 288 289 290 289 289 289 289 289 289 289 288 288 288 288 288 287 287 287 287 287 286 286 285 285 285 284 283 282 282 282 282 282 282 282 282 282 282 282 282 282 282 281 281 281 280 280 279 279 279 279 279 279 278 278 277 277 276 275 274 274 275 275 275 275 275 275 275 275 275 275 275 275 275 276 276 276 276 276 276 276 277 277 277 277
288 289 289 290 290 289 289 289 289 289 289 288 288 288 288 288 287 287 287 287 287 286 286 285 285 284 283 282 282 281 282 282 282 282 282 282 282 282 282 282 282 281 281 281 280 280 279 279 279 279 279 279 278 278 278 277 275 274 274 273 274 274 274 275 275 276 276 276 276 276 276 276 276 276 277 277 277 277 277 277 277 277 277 277 277
288 288 289 290 290 290 289 290 289 289 288 288 288 288 288 288 287 287 287 287 287 286 286 285 285 284 283 282 282 281 281 282 282 282 282 282 282 282 282 281 281 281 281 280 280 279 279 279 279 279 279 278 278 278 276 275 274 274 274 274 274 275 275 275 276 276 276 276 276 277 277 277 277 277 277 277 277 277 277 277 277 277 277 277 277
289 288 289 290 290 290 290 290 289 289 288 288 288 288 288 287 287 287 287 287 287 286 286 285 285 284 282 282 281 281 281 281 282 282 282 282 281 281 281 281 281 281 280 280 279 279 279 278 278 278 278 278 278 277 276 275 274 275 275 275 275 276 276 276 276 276 276 277 277 277 277 277 277 277 277 277 277 277 277 277 277 277 277 277 277
289 288 289 290 291 290 290 290 290 289 288 288 288 288 287 287 287 287 287 286 286 286 286 285 284 283 282 281 281 281 281 281 282 282 281 281 281 281 281 281 281 280 280 279 279 279 279 278 278 278 278 277 277 276 275 275 275 275 276 276 276 276 276 276 276 276 277 277 277 277 277 277 277 277 276 276 277 277 277 277 276 276 277 277 277
291 289 289 289 290 290 290 290 289 289 288 288 288 287 287 287 287 287 286 286 286 286 285 285 284 283 282 281 281 281 281 281 281 281 281 281 281 281 281 280 280 279 279 279 279 279 278 278 277 277 276 276 275 275 275 275 276 276 276 276 276 276 276 277 277 277 277 277 277 277 277 276 276 276 276 276 276 276 276 276 276 276 276 276 276
291 290 289 289 289 290 290 290 289 289 288 288 288 287 287 287 287 287 286 286 286 286 285 285 284 283 281 281 281 281 281 281 281 281 281 280 280 280 280 279 279 279 279 279 279 278 277 276 276 275 274 274 274 275 275 275 276 276 276 276 276 276 276 276 276 276 276 276 276 276 276 276 276 276 276 276 276 276 276 276 276 276 276 276 276
291 290 289 289 289 289 290 290 289 288 288 288 288 287 287 287 287 286 286 286 286 286 285 285 284 282 281 281 281 281 281 281 281 281 280 280 280 279 279 279 278 278 278 278 277 276 275 275 274 274 274 274 274 274 275 275 275 275 275 276 276 276 276 276 276 276 276 275 275 275 275 276 276 276 276 275 275 275 275 275 275 275 275 276 276
290 290 290 290 290 290 290 290 289 288 288 288 288 287 287 287 287 286 286 286 286 286 285 285 284 282 281 281 280 280 281 281 281 280 280 279 279 279 278 278 278 277 277 277 276 275 274 275 274 275 275 274 274 274 275 275 275 275 275 275 275 274 275 275 275 275 275 275 275 275 275 276 276 276 276 275 275 275 275 275 275 275 275 275 275
290 290 290 290 290 290 289 289 289 288 288 288 288 287 287 287 286 286 286 286 286 286 285 284 283 282 281 280 280 280 280 280 280 280 279 279 279 278 278 277 277 276 276 275 275 275 275 275 275 275 274 274 274 275 275 275 275 276 275 275 274 274 275 275 275 275 275 275 275 275 276 276 276 276 276 275 274 274 274 274 274 274 274 274 274
290 290 290 290 290 289 289 289 288 288 288 288 288 287 287 287 286 286 286 285 286 285 285 284 283 282 281 280 280 280 280 280 280 279 279 278 278 278 277 277 277 276 275 275 275 276 275 275 274 274 274 274 275 275 275 275 275 275 275 275 274 274 274 274 275 275 274 275 275 275 276 276 275 275 275 274 273 273 273 273 273 274 274 274 275
290 290 290 289 289 289 289 289 288 288 288 288 288 287 287 287 286 285 285 285 285 285 285 284 283 281 280 280 280 280 280 280 280 279 278 278 278 277 277 277 276 276 275 275 276 276 275 274 274 274 274 275 274 274 274 275 275 275 275 274 274 274 273 273 274 274 274 274 274 275 275 275 275 275 274 273 273 273 273 273 273 274 274 275 275
290 290 290 289 289 289 289 289 288 288 288 288 288 287 287 286 286 285 285 285 285 285 285 284 282 281 280 280 280 280 280 280 280 279 278 278 277 277 277 276 276 276 276 276 276 276 275 274 274 274 274 274 274 274 274 274 274 274 274 274 273 273 273 273 273 273 273 273 274 274 275 275 275 274 274 273 273 273 273 274 274 274 274 274 275
290 290 290 290 289 289 289 288 288 288 288 288 287 287 287 286 285 285 285 285 285 285 284 283 282 281 280 279 279 279 279 279 279 279 278 278 277 277 277 276 275 275 275 275 275 275 274 274 274 274 274 274 273 274 274 274 274 274 274 273 273 273 272 272 272 272 272 272 273 273 274 274 274 274 273 273 273 273 273 274 274 274 274 275 275
290 290 290 290 289 289 289 288 288 288 288 288 287 287 287 286 285 285 285 285 285 285 284 283 282 280 280 279 279 279 279 279 279 278 278 277 277 276 275 274 273 272 273 273 274 274 273 273 274 274 273 273 274 274 274 274 274 273 273 273 272 272 272 272 272 271 271 271 272 272 273 273 273 273 273 273 273 273 274 274 275 275 275 275 275
290 290 290 290 289 289 289 288 288 288 288 288 287 287 286 286 285 285 285 285 285 284 283 282 281 280 279 279 279 279 278 278 278 277 277 276 275 275 274 272 271 272 272 273 273 273 273 273 274 273 273 273 274 274 274 274 274 273 273 272 272 272 272 272 271 271 271 271 271 272 272 273 273 273 272 272 272 273 273 274 274 275 275 275 275
290 290 290 290 289 289 288 288 288 288 288 287 287 287 286 285 285 285 285 285 285 284 283 282 280 279 279 279 278 278 278 278 277 277 276 275 274 274 273 272 272 272 273 273 273 273 273 273 273 273 273 273 273 273 273 273 273 273 273 272 272 272 272 271 271 271 271 271 271 271 272 272 272 271 271 271 272 273 273 273 273 274 275 275 275
290 290 289 289 289 289 288 288 288 287 287 287 287 286 286 285 285 285 285 285 284 283 282 281 280 279 279 279 279 278 278 277 277 276 275 274 273 273 272 272 273 273 273 273 272 272 272 272 272 272 273 273 273 273 273 273 273 273 273 273 272 272 272 271 271 271 271 271 271 271 271 270 270 270 270 271 272 272 273 273 273 273 274 274 275
290 290 289 289 288 288 287 287 287 286 286 286 286 286 285 285 285 285 285 285 284 283 281 280 279 278 278 278 278 278 277 277 276 275 274 274 273 272 272 273 274 273 272 272 272 272 272 272 272 272 272 272 272 272 272 272 272 272 272 272 272 272 272 272 271 271 271 271 270 270 270 269 269 270 270 270 271 271 272 273 273 273 273 273 274
290 289 289 288 287 286 286 286 286 285 285 285 285 285 284 284 284 285 284 284 283 282 281 279 278 278 277 277 277 277 276 276 275 274 274 273 272 271 272 273 273 272 272 272 272 272 271 271 271 272 272 272 272 272 272 272 272 272 272 272 272 272 272 272 272 272 272 270 269 269 269 270 270 270 270 270 270 271 271 272 272 272 272 272 273
289 289 288 287 286 285 285 285 285 284 284 284 284 284 283 284 284 284 284 283 282 281 280 279 278 277 277 277 276 276 275 275 274 274 273 272 271 271 273 273 273 272 272 271 271 271 271 271 271 271 271 271 271 271 271 271 271 271 271 271 271 271 272 272 273 272 271 270 269 269 269 270 269 270 270 270 270 270 271 271 271 271 272 272 272
289 288 287 286 285 284 284 283 283 283 283 283 283 283 283 283 284 283 283 283 282 281 279 278 277 277 277 276 276 275 275 274 274 274 273 272 271 272 273 273 272 272 271 271 271 271 271 271 271 271 271 271 271 271 271 271 270 270 271 271 271 271 271 272 272 271 270 269 269 269 269 269 269 269 270 270 270 270 270 271 271 271 271 271 271
288 288 287 286 285 284 283 282 282 282 283 283 283 282 283 283 283 283 283 282 281 280 278 277 276 276 276 276 276 275 274 274 274 273 272 272 272 272 272 272 272 272 271 270 270 271 271 271 271 271 271 271 271 270 270 270 270 270 270 270 270 270 270 271 271 271 270 269 269 269 269 269 269 269 269 270 270 270 270 271 271 271 271 271 271
287 287 287 286 284 283 282 282 282 282 282 282 282 283 283 283 283 282 282 281 280 279 278 277 276 275 275 275 275 275 274 274 273 273 272 272 272 272 272 272 272 271 271 271 270 271 271 270 270 270 271 270 270 270 270 270 270 270 270 270 270 270 270 270 271 271 270 270 269 269 269 269 269 269 270 270 270 270 270 270 270 270 271 271 272
287 286 286 285 283 282 281 281 281 281 281 281 282 283 283 283 282 282 281 280 279 278 277 276 276 275 275 274 274 274 274 273 273 273 272 272 272 271 271 271 271 271 271 270 270 270 271 270 270 270 270 270 270 270 270 270 270 270 270 270 270 270 270 270 270 271 270 270 270 270 270 270 270 270 270 270 270 270 270 270 270 270 271 271 271
286 285 285 283 282 281 281 281 281 281 281 281 282 282 282 282 281 281 280 278 277 277 276 276 276 275 275 274 273 273 273 273 273 273 272 272 271 271 271 271 270 270 270 270 270 270 270 270 270 270 270 270 270 270 270 270 270 270 270 270 270 270 270 270 270 270 270 270 270 270 270 270 270 270 270 270 270 270 270 270 270 270 270 271 271
284 284 283 282 281 280 280 280 280 280 281 281 281 280 280 280 279 278 277 276 276 276 276 275 275 275 274 273 273 273 273 272 272 272 272 272 271 270 270 270 270 270 270 270 270 270 270 270 270 270 270 270 270 270 270 270 270 270 270 270 270 270 270 270 270 270 270 270 270 270 270 270 270 270 270 270 270 270 270 270 270 270 271 271 271
283 282 281 280 280 280 280 280 280 280 280 280 279 279 279 278 277 276 275 275 275 275 274 274 274 274 273 273 272 272 272 272 272 272 272 272 271 270 270 270 270 270 270 270 270 270 270 270 270 270 270 270 270 270 270 270 270 270 270 269 270 270 270 270 270 270 270 270 270 270 270 270 270 270 270 270 270 270 270 270 270 271 271 271 271
281 281 280 280 280 280 280 280 280 279 279 279 278 278 277 276 275 275 274 274 274 273 273 273 273 273 272 272 272 271 271 271 271 272 272 272 271 270 270 270 270 270 269 269 269 269 269 269 269 270 270 270 270 270 270 269 269 269 269 269 269 270 270 270 270 270 270 270 270 270 270 270 270 270 270 270 270 270 270 270 270 271 271 271 271
280 280 280 280 280 280 280 279 279 279 278 278 277 276 275 275 274 274 273 273 273 272 272 272 272 272 271 271 271 271 271 271 271 271 271 271 271 271 270 270 269 269 269 269 269 269 269 269 269 269 270 270 270 270 269 269 269 269 269 269 269 269 269 270 269 269 269 269 269 269 270 270 270 270 270 270 270 270 270 270 270 271 271 271 271
280 280 279 279 279 279 279 278 278 277 277 276 275 275 274 274 273 273 272 272 272 271 271 271 271 271 271 270 270 270 270 270 270 270 270 271 271 270 270 269 269 269 269 269 269 269 269 269 269 269 269 269 269 269 269 269 269 269 269 269 269 269 269 269 269 269 269 269 269 269 269 270 270 270 270 270 270 270 271 270 270 270 270 271 271
279 279 278 278 278 277 277 276 276 275 275 274 274 274 273 273 272 272 271 271 270 270 270 270 270 270 270 270 270 269 269 269 269 270 270 270 270 270 270 269 269 269 269 269 269 269 268 268 268 269 269 269 269 269 269 269 269 268 268 268 269 269 269 269 269 269 269 268 269 269 269 270 269 269 270 270 270 270 270 271 270 270 270 270 270
278 277 277 277 276 276 275 275 274 274 273 273 273 272 272 271 271 270 270 269 269 269 269 269 269 269 269 269 269 269 269 269 269 269 269 269 269 269 269 269 268 268 268 268 268 268 268 268 268 268 268 268 268 268 268 268 268 268 268 268 268 268 268 268 268 268 268 268 268 268 269 269 269 269 269 269 270 270 270 270 271 271 270 270 270
276 276 275 275 274 274 273 273 272 272 271 271 271 270 270 269 269 269 268 268 268 268 268 268 268 268 268 268 268 268 268 268 268 268 269 269 269 268 268 268 268 268 268 268 268 268 267 267 267 267 268 268 268 268 268 268 268 268 267 267 267 267 267 267 267 268 268 268 268 268 269 269 269 269 269 269 269 270 270 270 271 271 270 270 271
274 274 273 273 272 272 271 271 270 270 269 269 268 268 268 267 267 267 267 267 267 267 267 267 267 267 267 267 267 267 267 267 268 268 268 268 268 268 267 267 267 267 267 268 267 267 267 267 267 267 267 267 268 268 268 268 268 267 267 267 267 267 267 267 267 267 267 267 267 268 268 268 268 268 269 269 269 269 269 270 270 270 270 270 271
273 273 272 272 271 271 270 269 269 268 268 267 267 267 266 266 266 266 266 266 266 266 266 266 266 266 266 266 266 266 267 267 267 267 267 267 267 267 267 267 267 267 267 268 267 267 267 267 267 267 267 268 267 267 267 267 267 267 267 267 267 267 266 266 267 267 267 267 267 268 268 268 268 268 268 268 269 269 269 269 270 270 270 270 271
272 272 271 271 270 270 269 268 268 267 267 266 266 266 265 265 265 265 265 265 265 265 265 265 265 265 265 266 266 266 266 266 267 267 267 267 267 267 267 267 267 267 267 267 267 267 267 267 267 267 267 267 267 267 267 267 267 267 267 267 267 267 267 266 266 266 266 267 267 267 268 268 268 268 268 268 268 269 269 269 269 270 270 270 270
271 271 270 270 269 269 268 267 267 266 266 265 265 265 264 264 264 264 264 264 264 264 264 264 265 265 265 265 265 266 266 266 266 267 267 267 267 267 267 267 267 267 267 267 267 267 267 267 267 267 267 267 267 267 267 267 267 267 267 267 267 267 267 267 266 266 266 266 267 267 267 267 268 268 268 268 268 268 269 269 269 269 270 270 270
Wind_Speed
15 14 13 12 11 10 9 8 7 7 5 4 4 5 6 7 8 9 10 11 12 13 13 14 14 15 15 16 17 18 18 19 20 20 21 22 23 24 25 26 26 26 26 27 28 29 30 31 33 34 34 36 37 37 38 39 39 41 40 40 41 38 35 33 33 46 57 54 53 53 46 45 52 52 50 52 51 49 50 50 49 49 47 47 48
16 15 14 13 12 11 10 9 8 7 5 5 5 6 7 8 10 12 13 13 14 15 15 16 16 17 17 18 18 19 20 20 21 22 23 24 25 26 26 27 27 27 27 28 29 30 32 33 34 35 36 36 37 37 37 37 37 38 38 37 39 37 34 33 34 39 50 55 54 55 47 38 41 45 43 48 53 50 50 50 49 49 48 47 47
17 16 15 14 13 12 11 10 9 7 6 6 6 7 9 11 12 13 14 15 15 15 16 16 17 18 18 19 20 20 21 22 23 24 25 26 26 27 27 27 27 27 28 29 30 31 33 34 34 36 36 37 37 37 37 37 37 36 37 35 36 36 34 32 32 34 42 50 52 53 48 36 33 38 35 38 47 48 47 49 48 47 48 48 47
19 18 17 16 14 13 12 11 9 8 6 6 7 8 10 12 13 14 15 15 15 16 16 17 18 19 19 20 20 21 22 23 24 25 25 26 27 27 27 27 27 27 28 29 31 32 33 35 35 36 37 37 37 37 36 37 37 36 36 36 34 34 33 30 29 29 33 43 48 49 47 37 32 35 31 30 39 44 44 45 45 44 45 45 45
21 20 19 17 16 14 13 11 9 8 7 7 8 10 11 13 14 15 15 15 16 16 17 18 19 19 20 20 21 22 23 23 24 25 26 26 27 27 27 27 27 28 29 30 31 33 34 35 35 36 36 36 36 36 35 35 36 36 35 36 34 33 33 31 30 28 29 37 44 46 45 37 31 33 30 25 30 36 37 39 41 41 41 40 37
22 22 20 19 17 15 14 12 10 8 7 8 9 10 12 14 14 15 16 16 17 18 19 19 20 20 20 20 21 22 23 24 25 25 26 26 26 26 26 27 27 28 29 30 31 33 34 34 35 34 34 35 34 34 35 34 34 35 34 34 34 32 31 29 28 28 28 33 38 41 41 35 28 28 27 23 25 29 30 33 34 31 29 29 28
24 23 22 20 18 16 14 12 10 9 8 9 10 11 13 14 15 16 16 17 18 19 20 20 20 20 20 21 22 23 24 24 25 25 25 26 26 26 26 27 28 29 30 31 32 33 34 34 34 34 33 33 33 32 33 33 33 33 32 32 32 31 30 28 27 26 27 29 31 32 35 34 29 27 26 25 25 25 25 27 29 29 28 28 30
26 25 23 21 19 17 14 12 10 9 9 9 10 12 13 15 15 16 17 18 19 20 20 21 21 21 21 21 22 23 24 24 25 25 25 26 26 26 27 27 28 29 30 32 32 33 33 33 33 33 33 32 31 30 30 30 30 31 30 29 30 30 29 30 30 29 28 28 27 28 31 31 28 26 26 25 25 24 22 24 29 34 35 33 32
28 26 24 21 19 17 14 12 10 9 9 10 11 13 14 15 15 16 18 19 20 20 21 21 21 21 21 22 23 23 24 24 24 25 25 26 26 27 28 28 29 30 31 32 33 33 33 34 33 33 32 31 30 29 28 27 27 28 28 27 28 29 29 29 29 28 27 26 26 25 26 27 25 25 26 25 26 27 25 26 29 31 30 33 37
30 28 25 22 19 17 14 12 11 10 10 11 13 14 15 16 16 17 19 20 21 21 21 21 22 22 22 23 23 23 24 24 24 24 24 25 26 27 28 28 29 30 32 32 33 34 34 34 33 33 32 31 29 28 28 27 25 25 25 26 26 27 27 27 26 25 25 26 26 24 25 26 25 25 26 26 26 27 26 25 27 28 26 30 40
31 29 25 22 20 17 15 13 12 11 11 12 14 15 16 17 17 18 20 21 21 21 22 22 22 23 23 24 24 24 24 24 23 24 23 24 25 26 28 29 30 31 32 33 33 34 33 33 33 33 32 31 30 29 29 28 26 24 23 24 24 24 24 24 24 24 25 26 26 24 24 27 27 25 25 25 24 24 24 24 25 26 24 26 34
33 30 26 23 21 18 16 15 13 13 12 14 15 16 17 18 18 19 20 22 22 22 23 23 23 24 24 25 25 24 23 23 23 23 23 23 24 26 28 29 30 31 32 33 33 33 33 33 32 32 32 31 31 30 30 29 27 25 24 23 23 22 21 22 23 25 27 28 28 26 25 27 27 24 23 22 21 21 24 26 26 26 26 26 30
34 31 27 24 23 20 18 16 15 14 14 16 17 17 18 19 19 21 21 22 23 23 24 24 24 24 25 25 25 24 23 23 23 22 23 23 24 26 27 29 30 31 31 32 33 33 33 33 32 32 31 31 31 31 30 29 28 27 26 24 23 21 21 21 23 25 27 29 31 31 29 28 27 25 25 27 27 27 29 31 30 31 32 31 31
35 32 29 26 24 22 20 18 16 16 16 17 18 18 19 20 21 22 22 23 24 24 25 25 25 25 25 26 26 24 23 23 23 22 22 23 24 26 28 29 29 30 31 32 32 33 33 33 32 32 32 31 31 31 29 28 27 27 27 27 28 27 25 25 24 25 27 30 33 35 34 32 31 31 32 32 33 34 35 36 36 36 37 36 35
36 34 30 27 25 24 22 20 18 18 18 18 19 19 20 21 22 22 23 24 25 26 26 26 26 26 26 27 26 25 24 23 23 23 23 23 25 27 28 29 30 30 31 31 32 33 33 33 32 32 32 31 31 30 29 28 27 28 30 33 35 34 32 30 28 29 30 32 34 36 37 37 36 37 37 36 36 38 38 39 39 37 38 37 34
37 35 32 28 26 25 24 22 20 20 20 19 20 20 21 22 23 23 24 25 26 26 27 27 27 26 27 27 27 25 24 24 23 23 23 24 26 27 28 29 30 30 31 31 32 32 33 32 32 32 32 32 31 30 29 27 28 32 36 38 38 37 36 35 33 33 34 35 37 38 38 38 38 38 38 38 38 39 38 38 36 34 34 34 31
37 36 33 29 27 26 25 23 22 21 21 21 21 21 22 23 24 24 25 25 26 27 28 28 27 27 27 28 28 26 25 24 24 24 24 25 26 28 29 30 30 31 31 31 32 33 33 32 32 32 31 31 31 30 28 27 30 34 36 38 38 38 39 39 39 39 38 37 37 37 36 35 35 35 36 37 36 35 36 36 33 31 32 31 30
36 36 34 30 28 28 26 25 24 23 22 22 22 23 23 24 25 25 25 26 27 27 28 28 28 27 27 28 28 27 25 24 24 24 25 26 27 28 29 30 30 30 31 31 32 33 33 34 33 33 32 31 30 29 27 27 30 33 35 37 40 42 43 43 42 41 40 39 38 37 36 35 34 34 36 36 35 33 34 37 36 33 31 31 31
34 34 34 31 30 29 28 27 26 24 23 23 23 24 25 25 25 26 25 26 27 27 28 29 28 27 27 27 28 27 26 25 25 25 25 25 27 28 29 29 29 29 30 31 32 32 33 35 34 33 33 31 29 27 27 28 31 34 37 40 42 42 40 38 38 39 39 39 38 36 33 31 30 32 33 34 35 36 37 38 35 31 30 31 30
29 31 32 32 31 31 29 27 26 24 23 24 25 25 26 26 26 26 26 27 28 28 28 29 28 27 27 27 27 27 26 26 25 25 25 25 26 27 28 28 28 29 30 30 32 33 34 33 31 30 30 30 29 28 29 30 32 34 36 37 37 37 35 35 37 38 37 36 36 34 33 32 32 35 35 35 36 38 39 37 34 31 29 30 30
26 29 31 32 32 31 29 27 25 24 24 25 26 27 27 28 28 27 27 28 28 27 28 29 29 28 27 27 27 26 26 26 25 26 26 25 25 25 26 26 27 27 29 30 31 32 31 30 29 30 31 30 29 29 30 30 31 32 33 34 35 35 34 35 37 38 37 38 38 38 37 36 36 37 37 37 36 36 37 36 35 33 29 28 29
25 28 29 30 31 30 28 26 25 25 25 26 27 28 28 29 29 28 28 28 28 28 28 28 29 28 27 27 26 26 26 26 26 26 26 25 24 24 24 25 24 25 27 28 28 28 28 29 31 32 31 30 30 30 30 30 30 31 32 32 32 31 31 34 37 39 39 37 36 35 33 31 30 31 32 34 35 34 33 33 32 30 29 27 28
25 26 27 28 28 28 27 26 26 26 26 26 27 28 29 29 29 29 28 28 28 28 28 28 29 29 28 27 26 25 25 25 26 26 26 25 23 23 23 23 22 23 24 26 27 28 29 30 31 31 31 30 31 31 30 30 31 31 31 30 29 29 31 33 35 36 35 33 32 31 30 29 30 31 32 32 31 28 28 28 27 26 26 26 27
26 27 28 29 29 29 28 28 28 27 27 27 28 29 29 29 29 29 28 28 28 28 28 28 29 29 29 28 26 26 26 25 25 25 25 24 23 22 22 22 21 21 22 24 27 29 29 29 29 30 30 30 30 31 31 30 30 30 30 30 30 30 30 30 31 31 32 31 30 30 30 31 32 32 31 29 27 25 24 25 25 24 25 27 27
28 28 29 30 31 31 30 30 29 28 28 28 28 29 29 29 29 28 27 28 29 28 28 29 29 29 29 28 28 27 26 26 26 24 24 23 23 22 22 21 21 22 23 25 28 28 27 27 28 29 29 29 30 31 32 31 30 29 29 29 28 28 28 27 28 28 28 28 28 28 30 32 31 30 29 27 26 26 25 24 25 26 27 27 28
29 29 30 32 33 33 32 31 31 30 29 29 29 29 29 29 28 27 27 27 28 29 29 29 29 29 29 29 29 28 28 28 27 25 24 23 23 22 22 22 22 23 25 27 27 26 25 26 28 28 29 29 30 31 31 30 29 27 26 26 26 26 25 25 25 25 25 25 26 27 28 29 29 28 28 27 25 25 24 23 24 25 27 27 28
32 31 32 33 34 35 34 33 32 31 30 30 29 29 29 28 28 27 26 27 28 29 29 30 29 29 30 29 29 29 28 28 28 26 24 23 23 23 22 22 23 25 27 28 29 27 26 26 27 27 27 27 28 28 28 27 26 25 24 24 25 25 24 23 22 22 22 22 22 24 25 26 27 27 27 26 25 24 23 23 23 25 27 28 30
35 35 35 35 36 37 36 35 34 32 31 30 30 29 28 28 27 26 25 27 28 29 30 30 29 29 29 29 29 29 29 29 28 27 25 23 23 23 21 20 22 24 27 30 30 28 26 26 26 25 26 26 25 25 25 25 24 24 24 24 24 24 24 23 22 21 20 20 20 21 22 22 24 24 25 25 25 23 22 22 23 25 26 28 31
39 39 39 38 39 39 38 37 36 34 32 31 30 29 28 27 26 25 26 28 29 30 30 30 29 29 29 29 29 29 30 29 28 27 25 22 21 21 19 17 20 23 26 29 29 27 25 25 25 25 25 25 25 24 24 24 23 22 23 25 26 26 25 24 23 23 22 22 21 21 20 21 21 22 23 23 24 24 23 23 24 25 26 27 30
41 42 42 42 42 41 40 40 38 36 33 32 31 30 28 27 25 26 29 30 30 30 30 30 29 28 29 29 28 29 30 29 28 26 24 21 20 19 17 18 21 24 26 27 27 25 24 24 24 24 24 24 23 23 23 23 23 22 23 24 26 27 26 25 24 23 23 23 22 21 21 21 21 22 23 24 25 26 26 25 24 24 25 26 28
41 43 44 45 44 43 42 42 40 37 34 32 31 30 28 26 25 27 30 31 30 30 30 30 29 29 29 29 29 29 29 28 27 26 23 21 20 18 17 21 23 24 24 25 24 23 23 23 23 23 23 22 22 22 22 23 23 23 23 23 25 26 26 25 24 23 22 22 22 22 23 23 24 24 24 25 26 27 27 27 26 25 24 25 26
40 41 42 44 44 43 42 42 41 38 35 33 31 29 28 26 25 27 30 31 30 29 29 30 29 29 28 28 28 28 28 28 28 26 24 22 20 18 20 23 24 22 22 23 22 21 21 21 22 21 21 21 21 22 22 23 23 23 23 24 25 25 26 24 23 22 22 23 24 25 25 25 25 25 25 26 27 27 27 27 27 26 25 24 25
38 38 39 41 41 41 41 41 40 38 35 32 30 28 27 26 26 27 29 30 30 30 29 29 29 29 28 27 26 26 27 27 27 26 25 23 20 20 22 23 22 21 22 21 20 20 20 20 20 20 19 19 20 20 21 22 23 23 23 24 25 25 25 24 23 22 23 25 26 26 26 26 26 26 27 27 26 27 28 27 27 27 26 25 25
35 35 35 36 36 38 39 39 38 36 33 31 29 27 27 26 25 26 28 29 30 31 30 29 29 28 28 26 25 25 25 26 26 26 25 23 21 23 24 22 20 21 21 20 19 19 19 19 19 19 18 18 19 20 20 21 22 23 23 24 25 26 26 25 24 25 25 25 26 27 28 28 28 27 27 27 27 27 28 27 27 27 27 26 26
33 33 32 32 32 34 36 36 35 34 31 30 28 27 26 25 26 28 29 30 31 31 30 29 28 28 28 26 25 24 24 25 26 26 24 23 25 26 24 21 21 21 21 20 19 18 18 19 18 18 18 18 18 19 20 21 22 23 24 24 25 26 27 27 26 25 25 25 27 29 30 29 29 28 28 28 28 28 28 27 27 26 26 27 27
32 32 31 30 30 31 33 34 33 32 30 28 27 26 26 26 27 30 32 33 32 31 30 28 26 27 28 27 25 25 24 25 25 25 24 26 29 26 22 21 22 21 20 20 19 18 18 18 18 18 18 18 18 19 20 21 21 22 23 24 25 26 27 28 26 25 25 26 27 29 30 30 30 30 29 29 29 28 27 27 27 27 27 27 27
31 30 30 28 27 28 31 32 31 30 29 28 27 26 27 28 30 32 34 33 32 31 30 27 26 26 25 25 25 25 25 25 25 24 25 29 29 25 22 22 22 21 21 21 20 19 18 18 18 18 18 18 18 19 20 20 21 22 23 24 24 25 26 27 26 25 25 26 27 29 30 30 30 29 29 29 29 28 28 28 28 28 28 28 28
29 28 28 26 25 26 28 29 29 29 28 28 27 27 29 30 32 33 34 33 32 31 30 28 27 26 24 23 24 26 26 25 24 24 26 29 28 24 22 22 22 21 22 21 21 20 19 18 19 19 19 18 19 19 20 20 21 22 23 23 24 25 25 26 26 26 25 26 27 28 30 30 29 29 29 29 29 29 29 29 28 29 29 28 28
26 26 25 24 24 25 26 27 28 28 28 28 29 30 31 32 33 33 33 32 31 31 30 29 28 26 23 22 24 26 26 25 24 24 26 27 26 24 23 22 22 22 22 22 21 21 20 19 20 20 19 19 19 20 20 21 21 22 22 23 24 25 25 26 26 26 26 26 26 27 29 30 30 29 29 28 28 29 29 28 28 28 28 28 27
22 22 22 22 22 24 25 26 27 28 29 30 31 32 33 33 33 33 32 32 31 31 30 30 29 25 23 23 24 25 26 25 24 24 26 26 24 23 23 22 23 23 22 22 22 22 21 20 20 20 20 21 20 21 21 21 22 22 22 23 24 25 25 26 26 26 26 26 27 27 28 29 30 30 29 28 27 27 27 27 27 27 27 26 26
20 20 20 21 22 24 25 27 28 28 29 31 32 33 33 33 33 32 32 32 32 31 30 30 28 24 23 23 24 25 27 26 24 24 25 24 23 23 23 23 23 23 23 22 22 22 22 21 21 21 21 22 22 22 22 22 23 23 23 23 24 25 25 26 26 26 26 26 27 27 28 28 29 30 30 29 28 26 25 26 26 25 25 25 24
19 20 20 21 23 25 26 27 28 29 30 31 32 33 33 33 33 33 32 32 32 31 30 29 26 23 23 24 24 25 27 27 25 23 24 24 24 23 23 22 22 22 22 22 23 23 23 22 21 21 22 22 23 23 24 23 24 24 24 24 24 25 25 26 26 26 26 26 26 26 27 27 28 28 29 29 28 27 26 25 24 24 24 23 22
19 20 21 22 24 25 27 28 29 29 31 31 32 33 33 33 33 33 32 32 31 30 30 29 26 24 23 24 24 25 27 27 25 23 23 24 24 24 23 22 21 22 23 23 24 24 25 24 23 22 22 23 24 24 25 25 25 25 25 25 25 25 26 26 26 26 27 27 26 26 26 26 27 28 28 29 29 28 27 26 24 24 24 23 22
20 21 22 23 24 26 27 28 29 30 31 31 32 33 33 33 33 32 32 31 31 30 29 28 26 24 24 24 24 26 26 26 25 24 24 24 24 24 23 22 22 23 23 23 24 25 26 26 25 24 24 24 24 25 25 26 26 26 26 26 26 26 26 26 26 26 26 27 27 26 25 25 26 27 27 27 28 28 28 27 25 25 24 23 23
20 21 22 23 24 26 27 28 29 30 31 32 32 32 32 32 32 32 31 31 30 29 29 28 26 25 25 24 24 25 25 25 25 24 24 24 24 23 23 23 23 23 24 24 24 26 27 27 26 26 26 25 25 25 26 26 26 27 27 27 27 27 26 26 26 26 25 26 26 26 25 24 24 25 26 26 26 27 27 26 25 25 25 24 24
20 21 22 23 24 25 26 27 28 30 30 31 31 31 31 31 31 31 30 30 29 29 29 28 27 26 25 24 24 24 24 25 25 24 24 24 24 23 23 23 24 24 24 24 25 26 26 26 27 27 27 27 26 26 26 27 27 27 27 27 27 27 26 26 26 26 25 25 25 25 25 24 23 23 24 24 25 25 25 25 24 23 24 24 23
20 21 22 23 24 25 26 27 27 28 29 29 29 30 30 29 30 30 30 29 29 29 29 28 27 26 25 24 24 24 24 24 25 24 24 24 23 23 23 23 24 24 24 24 25 25 25 25 26 27 28 28 27 27 27 27 27 27 26 26 26 26 25 25 25 25 24 24 24 24 24 23 22 22 23 23 23 23 23 23 23 22 22 22 22
21 22 22 23 24 24 25 25 25 26 27 27 28 28 28 28 29 29 29 29 28 28 29 28 27 26 25 25 24 24 24 24 24 24 23 23 23 22 23 23 24 24 24 24 24 24 24 24 25 26 27 28 28 27 27 27 26 26 26 25 25 25 24 25 25 24 23 23 23 23 22 22 21 21 22 22 22 22 22 22 22 21 21 22 22
20 21 21 21 22 22 22 22 23 23 24 25 26 26 27 27 28 28 28 28 28 28 28 27 26 25 25 25 24 23 23 24 23 23 22 22 22 22 22 23 23 23 24 24 24 23 23 24 25 26 27 28 28 27 27 27 26 26 25 24 24 24 23 23 23 23 22 22 22 21 21 20 20 20 20 21 20 21 21 21 21 21 20 20 21
17 17 17 18 18 18 18 19 20 20 21 22 23 24 24 24 25 26 26 26 26 26 26 25 24 24 24 24 23 23 23 23 22 22 22 22 21 21 22 22 22 23 24 24 24 23 23 23 24 25 26 26 26 26 26 26 25 25 25 24 24 23 22 22 22 21 21 21 21 20 20 20 19 19 19 20 20 20 20 20 20 20 19 20 20
14 14 14 14 14 14 15 15 16 16 17 18 19 20 20 21 22 22 23 23 23 23 23 23 23 23 23 23 23 22 22 22 22 21 21 21 21 21 21 22 22 23 24 24 23 22 21 22 22 23 23 24 24 24 25 24 24 24 24 23 23 22 22 21 21 20 19 19 20 19 19 19 18 18 18 19 19 19 20 20 19 19 18 19 19
Wind_Direction
200 202 202 203 204 207 211 217 221 225 231 245 266 283 295 306 311 314 318 319 320 321 320 320 318 317 317 317 318 318 318 318 319 320 322 323 324 324 325 325 325 325 325 325 326 326 325 325 324 322 321 319 318 317 316 315 313 312 311 309 308 307 306 300 294 297 301 302 302 303 303 303 302 302 303 301 299 298 298 296 295 292 288 287 287
205 206 208 208 209 211 216 220 221 223 233 251 274 292 304 312 315 316 318 318 317 318 316 315 314 313 313 314 315 316 317 319 320 321 323 324 325 325 325 325 325 325 326 326 326 326 325 325 324 323 322 320 319 318 316 314 312 309 308 306 304 303 302 299 295 296 298 300 301 302 303 304 303 303 304 302 302 301 300 299 299 297 293 288 284
210 211 211 211 212 215 218 218 219 225 241 261 285 302 308 312 314 314 315 314 313 312 312 311 311 311 312 313 315 317 318 319 320 322 323 324 325 325 325 325 325 325 325 325 325 325 325 324 324 323 323 321 320 319 317 314 311 309 306 305 303 302 301 299 295 294 296 297 298 300 302 304 303 303 304 304 303 304 303 302 303 303 300 297 291
213 214 214 214 215 216 216 216 220 231 250 272 292 303 308 311 312 312 311 309 309 309 309 310 310 311 312 313 315 316 317 318 319 321 322 323 324 324 324 324 324 324 324 325 325 325 324 324 324 324 324 322 321 319 316 314 312 310 308 307 305 303 301 299 295 292 293 295 296 297 300 303 304 304 305 305 303 303 304 304 303 303 303 303 302
215 216 215 215 216 216 215 217 225 240 258 281 297 304 309 310 309 309 308 307 309 310 311 311 312 312 312 313 314 315 316 317 318 320 321 322 322 322 322 322 322 322 323 324 324 324 324 325 325 325 324 323 321 318 316 314 313 312 311 309 308 306 303 301 298 294 291 292 294 296 299 302 306 306 306 308 306 305 306 305 305 304 305 307 307
217 217 216 215 216 216 216 221 232 248 267 287 300 305 308 309 308 308 309 310 312 313 313 313 312 312 312 312 313 314 315 316 317 319 320 321 321 321 320 320 320 321 322 323 324 324 325 325 325 326 325 322 321 319 317 316 314 313 312 310 309 307 305 303 301 298 294 293 296 298 300 304 308 309 309 311 309 308 309 309 308 308 309 309 307
218 218 217 216 217 217 219 227 238 255 274 289 297 302 306 308 309 310 312 314 315 315 314 313 312 311 311 311 313 314 315 316 317 319 320 320 320 319 318 319 320 321 322 323 324 324 325 326 326 326 326 324 323 322 320 317 315 313 311 310 308 305 301 299 297 295 294 294 296 298 299 302 306 307 308 310 308 306 308 310 308 303 302 303 302
220 220 218 217 218 219 223 231 243 259 275 285 293 299 304 306 310 314 316 317 317 316 314 313 311 309 310 311 313 314 314 315 316 317 318 318 318 318 318 319 320 321 322 322 324 325 325 326 326 327 327 326 325 324 322 318 315 311 309 307 304 301 299 297 296 296 296 296 296 298 300 302 305 307 309 312 310 309 309 308 303 300 301 301 298
222 221 220 219 221 222 226 235 246 260 273 282 291 297 299 303 309 315 318 319 318 317 314 312 310 308 309 311 312 313 313 314 315 316 317 317 317 317 318 319 320 320 321 323 324 325 326 326 328 328 327 326 325 324 321 318 314 310 307 305 302 300 299 299 300 301 301 299 299 300 301 302 305 308 309 309 307 306 306 304 300 299 303 301 295
224 222 221 223 223 224 229 236 247 260 271 282 290 293 294 299 306 314 319 320 319 318 315 312 310 308 308 310 311 312 312 312 314 314 315 316 316 316 317 318 319 321 322 323 324 325 326 327 328 327 327 326 325 323 321 318 314 309 304 300 298 298 297 298 301 302 301 300 299 300 300 300 304 307 305 305 304 303 304 303 301 302 305 302 299
225 223 223 225 226 227 232 237 247 259 270 281 287 289 291 296 302 310 317 320 320 318 316 313 309 308 308 309 310 310 310 310 311 312 313 315 315 315 316 317 319 321 321 322 324 325 326 326 326 327 327 326 325 324 320 317 315 310 303 297 296 296 296 300 303 306 305 302 299 298 296 299 305 307 305 305 305 302 302 302 300 302 304 304 303
226 224 225 227 228 229 234 239 248 258 268 278 282 285 289 293 298 305 312 318 319 318 317 313 309 306 306 307 308 308 308 308 309 310 312 313 313 313 315 317 319 320 321 322 323 323 324 325 326 326 328 327 325 324 321 318 316 312 304 298 294 294 299 306 309 308 303 298 294 293 292 295 301 302 303 306 304 299 300 301 300 300 299 299 299
226 225 226 229 229 231 236 240 247 258 266 275 279 281 286 289 293 299 307 315 318 318 317 313 309 306 304 305 307 306 306 306 307 309 310 311 312 313 315 317 317 319 320 321 321 322 323 325 326 326 327 327 326 325 322 318 315 311 308 305 303 304 307 311 311 307 300 294 291 291 294 295 293 293 300 307 303 299 299 300 300 300 298 297 296
226 226 227 230 230 233 237 240 247 257 264 271 275 278 282 286 290 295 304 312 316 317 316 313 309 305 303 304 305 305 304 304 304 306 309 311 312 313 314 316 316 317 319 319 320 321 322 324 325 326 326 325 325 324 322 319 316 314 315 314 313 315 315 313 313 309 305 301 297 297 301 300 294 295 302 304 301 299 300 300 300 298 296 296 297
227 227 228 230 232 235 238 241 247 256 262 268 273 276 280 284 288 294 302 309 314 315 315 313 309 305 303 304 304 304 303 303 304 306 309 311 312 313 314 314 315 316 317 319 320 320 321 322 323 324 324 324 324 324 324 323 319 316 315 314 313 312 310 309 309 308 307 305 302 301 302 301 299 300 303 303 300 301 301 299 299 298 296 296 296
228 228 229 231 234 237 240 243 248 254 260 267 271 274 279 283 287 293 300 306 311 313 314 312 308 304 303 303 303 303 302 302 304 307 309 311 312 312 313 313 314 316 317 318 318 318 318 320 322 323 324 325 325 326 327 325 318 313 311 310 308 307 306 307 310 310 308 306 303 302 300 300 299 298 298 298 296 297 296 293 293 295 295 293 292
229 229 230 233 236 240 243 246 249 253 259 266 270 273 278 282 286 291 298 304 308 311 312 311 307 302 302 302 302 301 301 302 304 306 308 310 311 311 312 313 314 316 317 317 317 316 317 319 322 324 324 325 326 329 328 319 310 307 305 304 305 305 305 308 310 308 307 304 300 298 296 294 294 292 291 289 288 288 289 288 290 292 291 288 287
230 230 232 234 239 244 247 248 250 253 259 266 269 272 276 280 284 289 295 301 305 309 310 309 305 301 301 302 301 300 300 301 303 304 306 309 310 311 312 312 314 315 316 316 315 315 316 318 321 324 326 328 329 326 319 310 304 304 304 304 304 303 303 307 308 306 306 305 301 298 296 293 292 291 289 286 284 284 283 284 288 289 284 282 283
232 233 234 237 242 246 249 250 250 253 261 266 269 272 275 278 282 287 293 299 302 306 308 308 304 300 300 301 300 299 299 300 302 303 305 308 309 309 310 311 313 314 313 313 313 314 316 319 323 326 329 329 325 317 311 307 305 304 304 304 303 301 302 305 305 303 303 303 302 301 300 297 295 294 291 287 287 288 287 285 285 282 277 277 279
236 236 237 240 244 248 249 249 251 255 262 267 269 272 274 276 281 286 291 296 299 303 307 306 303 300 299 300 299 298 298 299 301 302 304 306 307 308 309 310 311 312 313 313 313 315 319 321 322 323 323 321 318 313 309 307 304 301 301 301 300 299 300 300 300 299 298 296 295 295 295 294 293 293 292 289 288 290 291 289 285 279 274 273 275
237 238 240 242 247 250 249 249 251 257 263 268 270 272 274 276 281 285 289 293 296 300 304 305 301 298 298 298 297 297 297 298 300 301 303 305 306 307 307 308 310 312 312 312 314 316 317 317 315 316 318 318 318 314 310 308 305 300 298 296 294 296 299 298 294 292 289 290 291 292 293 295 296 297 296 293 292 292 292 290 287 282 275 271 273
238 240 242 245 247 248 248 248 252 258 264 267 269 272 274 276 280 283 287 290 293 297 302 303 299 297 296 296 296 296 296 297 298 300 302 305 306 306 306 307 309 309 308 310 311 310 309 310 312 316 319 319 317 315 313 313 311 306 302 299 295 294 295 292 289 289 292 295 296 298 299 301 301 301 299 298 298 296 292 289 286 282 276 271 271
239 241 243 244 246 246 247 248 253 258 263 266 268 271 274 276 279 281 284 288 291 294 299 300 298 295 295 295 294 294 294 295 297 300 302 304 305 304 303 304 304 304 305 305 304 303 307 313 316 318 318 317 316 316 317 318 315 312 308 304 297 293 290 289 290 293 297 299 300 302 302 302 301 301 301 302 301 297 291 288 285 282 279 279 280
237 239 240 242 243 245 246 248 252 256 260 262 266 269 272 275 277 279 282 287 290 292 296 298 297 295 294 294 293 292 293 294 296 299 301 303 304 302 301 301 301 300 299 298 300 306 314 318 317 316 316 317 318 319 321 320 318 314 311 306 302 299 297 295 295 295 297 299 301 301 301 301 303 305 307 307 302 296 294 292 291 290 289 290 290
236 237 239 240 242 243 244 246 250 253 256 259 263 267 271 273 275 278 282 286 289 291 294 297 296 295 294 294 293 292 292 293 296 299 301 302 301 300 299 299 297 298 298 300 305 311 316 317 316 316 318 321 324 324 324 322 319 316 312 309 307 306 305 302 301 301 302 302 302 301 301 302 304 307 310 309 301 296 297 296 295 297 298 297 296
238 239 240 242 242 243 244 245 248 251 253 257 261 265 269 272 274 277 282 287 289 291 294 295 295 294 294 293 292 292 293 294 296 300 302 300 298 297 298 299 300 302 304 305 309 313 318 319 319 321 324 327 327 325 323 321 320 318 317 316 315 315 313 311 309 308 307 305 304 303 303 303 304 306 310 310 302 296 296 296 295 297 298 298 297
243 243 244 245 244 243 243 244 246 249 252 256 260 264 267 271 274 278 284 288 289 290 292 294 294 293 293 292 291 291 292 294 297 300 300 298 298 300 304 306 307 308 309 310 313 319 323 322 321 324 327 328 326 322 320 321 322 324 327 328 327 326 323 320 317 314 312 310 307 304 302 302 303 305 308 308 304 301 300 298 295 294 298 300 300
247 247 248 248 248 246 244 244 246 249 252 255 259 262 266 270 274 280 286 288 288 289 291 292 293 292 291 290 290 291 292 294 297 298 299 301 303 306 311 312 308 307 308 309 313 320 323 320 320 325 327 326 324 323 322 324 327 332 337 340 340 337 332 328 325 323 320 316 312 308 307 306 304 304 305 307 307 307 305 300 295 293 294 296 297
250 250 251 251 250 248 245 243 245 247 250 254 258 261 265 269 275 283 289 288 286 286 289 291 291 289 288 288 289 290 292 294 296 298 301 304 305 307 310 306 299 300 302 304 310 317 319 318 321 326 327 326 326 328 328 329 333 338 343 345 346 345 341 335 331 329 327 325 322 319 316 313 310 310 311 310 309 306 305 303 300 297 295 292 289
254 254 254 253 252 250 246 244 244 245 249 253 256 259 263 267 275 286 290 286 283 284 287 289 288 286 286 286 286 287 288 292 294 297 301 303 302 302 301 293 290 295 299 302 308 313 316 319 324 326 325 326 328 331 333 335 338 343 347 349 349 347 344 340 338 335 333 332 330 329 328 327 326 323 320 316 312 309 308 308 305 300 297 294 290
256 257 257 256 254 252 248 245 243 244 247 251 255 258 262 266 276 286 287 283 281 283 285 287 286 284 284 285 285 286 289 292 294 296 298 298 297 296 292 288 291 297 299 301 306 311 314 319 323 322 323 327 329 333 336 338 341 345 350 352 352 348 344 342 341 338 337 339 340 340 340 338 334 330 326 322 318 315 314 313 311 308 303 298 294
257 258 259 258 256 253 249 246 243 243 245 250 254 258 262 266 275 282 283 280 280 281 283 284 283 283 284 285 286 289 291 292 293 293 293 293 293 289 285 289 296 299 298 299 305 309 313 317 318 318 322 326 329 333 336 338 341 345 348 352 353 350 345 342 341 342 346 351 351 349 346 342 338 335 331 328 325 322 321 321 321 320 314 304 297
260 261 262 260 257 254 250 246 244 243 245 250 254 257 261 267 274 278 278 278 280 282 282 281 280 281 281 281 283 284 285 287 289 289 291 293 289 281 283 293 299 296 294 298 303 306 310 311 312 315 320 324 327 331 335 337 339 342 346 349 351 350 346 343 343 349 356 357 354 350 348 346 342 338 333 331 329 328 327 327 326 325 319 309 302
262 263 262 261 257 254 251 247 245 244 246 251 254 257 261 267 272 274 275 278 280 281 280 278 278 278 278 279 281 281 281 283 283 284 288 288 280 277 286 296 296 291 292 296 299 302 304 305 308 312 317 321 324 328 331 334 336 339 342 346 348 348 346 345 349 356 359 358 355 353 352 349 346 341 336 334 332 331 330 329 328 326 323 316 309
262 262 261 259 254 251 249 246 244 244 248 251 255 258 262 267 271 275 278 278 277 276 276 275 276 277 278 279 280 279 279 279 279 282 284 279 275 280 291 295 290 288 290 292 293 296 298 299 304 309 313 317 321 324 327 330 333 336 339 343 345 346 345 347 353 357 356 355 355 354 352 350 347 344 340 336 335 334 333 331 330 327 322 317 312
262 260 259 255 250 247 245 243 242 245 249 253 256 260 264 268 273 277 278 276 274 272 272 271 272 274 277 279 280 280 279 278 279 281 279 275 276 284 290 287 285 285 285 285 287 289 292 295 301 305 308 312 317 321 324 327 330 334 337 339 342 344 344 346 351 353 352 353 353 352 351 349 347 345 342 338 337 335 334 333 332 328 324 320 315
260 258 257 253 248 244 243 242 243 247 250 254 257 262 266 271 274 275 274 273 272 271 270 270 269 270 272 275 277 277 276 275 275 274 273 274 279 285 284 281 281 281 279 281 284 286 289 293 297 300 304 309 313 316 321 324 327 331 334 336 339 341 343 344 347 349 350 352 353 353 352 350 347 345 343 339 337 336 336 335 333 329 326 324 321
259 256 253 247 242 239 239 241 244 248 252 255 259 263 267 270 271 271 270 270 270 270 271 271 270 270 271 272 272 272 272 272 272 271 271 274 279 281 278 278 278 277 277 280 282 284 288 291 294 297 302 306 309 313 316 319 323 327 330 333 336 338 340 342 344 345 348 350 351 351 352 350 348 347 344 341 340 338 336 335 334 331 329 328 325
255 250 245 239 234 234 237 242 247 251 255 258 260 262 264 266 266 267 267 268 268 268 270 271 271 271 272 270 269 270 271 270 271 271 271 274 277 277 275 275 275 274 275 277 279 283 287 288 291 296 299 303 306 309 311 315 318 322 326 329 331 334 336 339 341 343 344 346 347 348 349 349 349 348 346 343 341 338 336 335 335 334 332 329 326
246 240 236 233 233 237 241 246 251 255 257 259 260 261 263 263 264 265 266 265 266 267 268 269 270 271 271 268 267 268 269 268 268 269 269 271 272 272 270 270 270 271 273 275 278 282 284 286 290 294 297 300 303 305 307 310 313 317 321 324 327 329 332 335 338 340 340 342 343 345 347 348 349 348 347 345 341 338 337 336 336 335 334 331 329
234 232 233 235 239 244 248 251 254 257 259 260 261 263 264 264 264 265 264 264 265 266 267 268 269 269 268 266 266 266 267 267 266 267 268 270 269 266 265 265 267 269 272 275 278 281 283 286 289 292 294 297 300 301 304 306 309 312 317 320 322 325 327 330 333 336 336 338 339 340 343 346 347 347 347 345 342 340 340 339 337 337 336 335 336
235 237 240 244 248 252 254 256 258 258 260 261 262 263 264 264 264 264 263 264 265 266 267 267 268 266 264 264 263 264 265 267 267 266 267 267 266 264 264 265 266 270 273 276 279 282 284 286 288 290 292 295 297 299 301 304 306 309 312 315 317 320 322 325 328 331 332 334 335 336 338 342 344 345 345 344 343 343 342 340 339 338 338 339 341
247 249 250 252 254 257 258 260 261 261 261 263 263 264 264 264 264 264 265 265 265 266 267 267 266 263 260 260 260 261 263 267 268 267 265 264 264 266 267 268 269 272 274 277 280 282 284 286 288 289 291 292 294 296 299 301 304 305 308 310 313 315 317 320 323 326 327 329 330 331 334 337 340 342 343 344 344 343 342 341 341 340 339 339 341
255 256 256 257 258 259 260 262 263 264 265 265 265 264 265 265 265 266 266 266 266 266 266 266 265 262 258 257 258 260 262 265 266 266 264 263 264 266 268 270 272 273 275 277 279 281 283 286 287 289 290 291 292 294 296 298 300 302 304 306 308 310 313 316 318 320 323 324 325 327 329 333 336 338 340 343 343 342 342 343 342 340 339 339 339
258 259 260 261 261 262 263 264 265 266 266 267 267 267 267 267 267 267 266 266 265 265 264 264 264 262 259 257 256 258 261 262 262 262 262 262 263 265 267 269 271 273 274 276 278 280 282 285 287 289 290 290 291 292 293 295 296 298 300 302 304 306 308 310 312 315 318 319 320 322 324 327 332 335 337 339 341 342 342 342 342 341 340 340 338
261 262 263 264 264 265 265 266 266 267 268 268 269 270 269 269 269 268 267 266 265 264 264 263 262 261 260 258 257 257 258 259 260 260 260 260 261 263 265 267 269 271 273 275 277 278 281 284 286 289 290 290 291 292 292 293 293 294 296 297 299 301 303 305 306 309 312 314 316 317 319 323 327 331 332 335 338 340 341 342 343 343 343 341 339
265 266 267 267 267 268 267 268 268 269 270 271 272 272 272 271 270 269 268 266 265 263 262 261 261 260 259 258 257 257 256 257 257 257 258 259 260 262 264 266 268 271 272 274 276 278 280 283 286 288 289 290 291 291 292 292 293 293 294 295 296 297 299 300 301 303 307 310 310 311 314 318 322 326 329 331 334 336 337 339 341 344 344 344 343
271 271 271 271 271 271 272 272 272 272 273 274 274 274 274 273 272 270 269 267 264 262 261 260 260 259 258 256 256 256 255 255 256 256 257 258 259 261 264 266 268 271 273 274 276 278 281 284 286 287 289 289 290 291 291 291 292 293 293 294 295 296 296 296 297 300 303 304 305 307 310 314 317 321 324 327 329 332 333 334 336 340 343 344 345
276 276 276 277 277 278 279 279 278 279 279 279 278 277 277 275 273 272 270 268 265 263 262 261 260 259 257 257 256 256 255 255 256 257 258 259 260 262 265 267 269 272 274 275 277 279 282 284 285 286 287 288 289 290 290 291 291 292 293 293 294 295 295 294 295 298 300 300 301 304 307 310 312 316 319 321 324 327 329 330 332 336 340 343 344
280 280 281 283 284 286 287 287 287 288 286 285 284 283 281 279 276 274 271 269 267 266 264 263 262 261 260 259 259 258 258 258 258 259 259 261 262 264 266 268 271 274 275 277 279 281 283 283 284 284 285 286 288 288 290 291 292 293 293 293 293 293 293 293 293 294 295 296 298 301 303 305 307 310 314 317 319 322 325 328 331 334 338 341 342
285 287 290 291 293 295 296 296 297 297 294 292 291 290 287 285 283 279 276 274 271 269 267 265 262 262 262 261 261 261 260 260 261 261 262 263 265 267 269 271 273 275 276 277 280 282 282 283 283 284 284 285 286 288 289 292 293 294 294 294 293 292 291 291 291 291 291 292 295 297 299 300 303 307 310 313 316 320 323 326 329 333 337 341 341